Flag for Poland Weather past 2 weeks in Jastrzębie Zdrój, Poland

Now
70 °F

Partly sunny.


Feels Like: 70 °F
Forecast: 50 / 69 °F
Wind: 8 mph from Northeast

Location: Ostrava / Mosnov


UV Index: 3 (Moderate)

Visibility: 19 mi


Pressure: 29.96 "Hg

Humidity: 43%

Dew point: 46 °F

Location of Jastrzębie ZdrójLocation

Historic Weather in Jastrzębie Zdrój

°F

Jastrzębie Zdrój temperature yesterday

Maximum temperature yesterday: 67 °F (at 2:00 PM)
Minimum temperature yesterday: 47 °F (at 3:00 AM)
Average temperature yesterday: 55 °F

Past Weeks' High & Low Weather Summary

 TemperatureHumidityPressure
High70 °F (Apr 24, 5:00 PM)99% (Apr 23, 6:00 AM)30.36 "Hg (Apr 23, 6:00 AM)
Low31 °F (Apr 12, 7:00 AM)31% (Apr 18, 5:00 PM)29.75 "Hg (Apr 18, 4:00 PM)
Average48 °F78%30.00 "Hg
* Reported Apr 9 5:00 PM — Apr 24 5:00 PM, Jastrzębie Zdrój, Weather by CustomWeather, © 2014

Note: Actual official high and low records may vary slightly from our data, if they occured in-between our weather recording intervals... More about our weather records

Advertising

Historic Weather Conditions — Data for Previous 24 hours

 ConditionsComfort  
Time TempWeatherWind HumidityBarometerVisibility
5:00 PM
Apr 24
70 °FPartly sunny.8 mph43%29.96 "Hg19 mi
4:00 PM69 °FPartly sunny.7 mph51%29.96 "Hg16 mi
3:00 PM69 °FPartly sunny.7 mph52%29.99 "Hg12 mi
2:00 PM67 °FPartly sunny.8 mph57%30.02 "Hg9 mi
1:00 PM64 °FPartly sunny.5 mph69%30.04 "Hg6 mi
12:00 PM59 °FFog.3 mph81%30.07 "Hg3 mi
11:00 AM56 °FFog.5 mph88%30.09 "Hg2 mi
10:00 AM54 °FFog.5 mph93%30.09 "Hg2 mi
9:00 AM53 °FFog.3 mph96%30.09 "Hg1 mi
8:00 AM53 °FFog.3 mph96%30.09 "Hg1 mi
7:00 AM53 °FFog.2 mph96%30.09 "Hg1 mi
6:00 AM52 °FFog.3 mph97%30.08 "Hg2 mi
5:00 AM52 °FFog.3 mph97%30.08 "Hg1 mi
4:00 AM53 °FFog.2 mph98%30.09 "Hg2 mi
3:00 AM50 °FFog.2 mph98%30.09 "Hg4 mi
2:00 AM50 °FFog.N/A97%30.09 "Hg6 mi
1:15 AM52 °FPassing clouds.1 mph97%30.10 "Hg6 mi
12:00 AM52 °FPassing clouds.N/A98%30.10 "Hg6 mi
11:00 PM
Apr 23
51 °FPassing clouds.1 mph96%30.10 "Hg6 mi
10:00 PM54 °FPassing clouds.2 mph94%30.10 "Hg7 mi
9:00 PM56 °FPassing clouds.2 mph88%30.09 "Hg9 mi
8:00 PM57 °FOvercast.N/A87%30.08 "Hg11 mi
7:00 PM58 °FLight rain. Overcast.2 mph86%30.06 "Hg11 mi
6:00 PM61 °FSprinkles. Partly sunny.7 mph71%30.05 "Hg8 mi
Weather by CustomWeather, © 2014

See weather overview